Weather in Verkhniy Ikorets

Russia / Voronezh Oblast     51°10′57″N   39°47′44″E
temp.,
°C
wind,
m/s
gust,
m/s
humid.,
%
clouds,
%
prec.,
mm/h
press.,
hPa
HPBL,
m
14 august, sun
sun1400:00+23e51059100 0.0 1018345
03:00+22ene61267100 0.0 1017319
06:00+20se237697 0.9 101851
09:00+21ene41075100 1.3 1017290
12:00+27e364965 0.0 1017725
15:00+32e6629100 0.0 10152459
18:00+29ne7934100 0.0 1015872
21:00+23ne6144618 0.3 1015302
15 august, mon
mon1500:00+21ene49548 0.0 1015165
03:00+21e5135018 0.0 1015286
06:00+20e513505 0.0 1015292
09:00+27e7103833 0.0 1015664
12:00+33e892318 0.0 10141785
15:00+35e77205 0.0 10133054
18:00+33e682226 0.0 10131020
21:00+29e7162994 0.0 1014575
16 august, tue
tue1600:00+25ese8163797 0.0 1015531
03:00+23ese6153393 0.0 1016549
06:00+21e61434100 0.0 1017368
09:00+26e7102870 0.0 1016586
12:00+31e7822100 0.0 10151348
15:00+34ese7818100 0.0 10142308
18:00+29sse4728100 0.0 1014429
21:00+28ene51026100 0.0 1014206
17 august, wed
wed1700:00+25ene51232100 0.0 1014274
03:00+24ene4842100 0.2 1014170
06:00+25ese5124188 0.0 1013532
09:00+30e9113189 0.0 1013975
12:00+33e8102341 0.0 10122459
15:00+36e9101979 0.0 10103595
18:00+33ene9112169 0.0 10101323
21:00+29e9162689 0.0 1011657
18 august, thu
thu1800:00+25e7153112 0.1 1011516
03:00+21ene51447100 0.3 1011312
06:00+22ne594170 0.0 1011338
09:00+27e7103265 0.3 1011768
12:00+31e71026100 1.1 10101265
15:00+32e81023100 1.1 10101672
18:00+30ene5926100 0.1 1010858
21:00+29ne81430100 0.1 1010563